Year,Month,Day,Hour,Minute,Value (Times are PST for temperature in C)
2015,09,11,09,59,20.60
2015,09,11,10,00,20.60
2015,09,11,10,01,20.60
2015,09,11,10,02,20.70
2015,09,11,10,03,20.80
2015,09,11,10,04,20.90
2015,09,11,10,05,20.90
2015,09,11,10,06,21.00
2015,09,11,10,07,21.00
2015,09,11,10,08,21.10
2015,09,11,10,09,21.20
2015,09,11,10,10,21.30
2015,09,11,10,11,21.30
2015,09,11,10,12,21.30
2015,09,11,10,13,21.30
2015,09,11,10,14,21.30
2015,09,11,10,15,21.30
2015,09,11,10,16,21.30
2015,09,11,10,17,21.40
2015,09,11,10,18,21.40
2015,09,11,10,19,21.40
2015,09,11,10,20,21.40
2015,09,11,10,21,21.50
2015,09,11,10,22,21.60
2015,09,11,10,23,21.60
2015,09,11,10,24,21.60
2015,09,11,10,25,21.60
2015,09,11,10,26,21.60
2015,09,11,10,27,21.70
2015,09,11,10,28,21.80
2015,09,11,10,29,21.90
2015,09,11,10,30,22.00
2015,09,11,10,31,22.00
2015,09,11,10,32,22.10
2015,09,11,10,33,22.10
2015,09,11,10,34,22.20
2015,09,11,10,35,22.10
2015,09,11,10,36,22.10
2015,09,11,10,37,22.10
2015,09,11,10,38,22.10
2015,09,11,10,39,22.10
2015,09,11,10,40,22.10
2015,09,11,10,41,22.10
2015,09,11,10,42,22.10
2015,09,11,10,43,22.10
2015,09,11,10,44,22.10
2015,09,11,10,45,22.20
2015,09,11,10,46,22.20
2015,09,11,10,47,22.20
2015,09,11,10,48,22.20
2015,09,11,10,49,22.20
2015,09,11,10,50,22.20
2015,09,11,10,51,22.30
2015,09,11,10,52,22.20
2015,09,11,10,53,22.30
2015,09,11,10,54,22.30
2015,09,11,10,55,22.20
2015,09,11,10,56,22.20
2015,09,11,10,57,22.20
2015,09,11,10,58,22.10
2015,09,11,10,59,21.90
2015,09,11,11,00,21.80
2015,09,11,11,01,21.70
2015,09,11,11,02,21.60
2015,09,11,11,03,21.60
2015,09,11,11,04,21.60
2015,09,11,11,05,21.50
2015,09,11,11,06,21.40
2015,09,11,11,07,21.40
2015,09,11,11,08,21.40
2015,09,11,11,09,21.30
2015,09,11,11,10,21.40
2015,09,11,11,11,21.40
2015,09,11,11,12,21.40
2015,09,11,11,13,21.60
2015,09,11,11,14,21.70
2015,09,11,11,15,21.70
2015,09,11,11,16,21.70
2015,09,11,11,17,21.80
2015,09,11,11,18,21.80
2015,09,11,11,19,21.90
2015,09,11,11,20,21.90
2015,09,11,11,21,21.80
2015,09,11,11,22,21.80
2015,09,11,11,23,21.80
2015,09,11,11,24,21.90
2015,09,11,11,25,22.00
2015,09,11,11,26,22.00
2015,09,11,11,27,22.00
2015,09,11,11,28,22.00
2015,09,11,11,29,21.90
2015,09,11,11,30,21.90
2015,09,11,11,31,21.80
2015,09,11,11,32,21.90
2015,09,11,11,33,21.90
2015,09,11,11,34,21.90
2015,09,11,11,35,21.90
2015,09,11,11,36,21.80
2015,09,11,11,37,21.80
2015,09,11,11,38,21.80
2015,09,11,11,39,21.90
2015,09,11,11,40,21.90
2015,09,11,11,41,21.90
2015,09,11,11,42,21.80
2015,09,11,11,43,21.80
2015,09,11,11,44,21.80
2015,09,11,11,45,21.80
2015,09,11,11,46,21.80
2015,09,11,11,47,21.80
2015,09,11,11,48,21.80
2015,09,11,11,49,21.80
2015,09,11,11,50,21.80
2015,09,11,11,51,21.80
2015,09,11,11,52,21.80
2015,09,11,11,53,22.00
2015,09,11,11,54,22.00
2015,09,11,11,55,22.10
2015,09,11,11,56,22.10
2015,09,11,11,57,22.10
2015,09,11,11,58,22.00
2015,09,11,11,59,22.00
2015,09,11,12,00,22.00
2015,09,11,12,01,21.90
2015,09,11,12,02,22.00
2015,09,11,12,03,22.00
2015,09,11,12,04,22.00
2015,09,11,12,05,22.00
2015,09,11,12,06,22.00
2015,09,11,12,07,22.00
2015,09,11,12,08,22.00
2015,09,11,12,09,22.00
2015,09,11,12,10,22.10
2015,09,11,12,11,22.10
2015,09,11,12,12,22.10
2015,09,11,12,13,22.10
2015,09,11,12,14,22.10
2015,09,11,12,15,22.10
2015,09,11,12,16,22.10
2015,09,11,12,17,22.20
2015,09,11,12,18,22.10
2015,09,11,12,19,22.10
2015,09,11,12,20,22.10
2015,09,11,12,21,22.20
2015,09,11,12,22,22.20
2015,09,11,12,23,22.20
2015,09,11,12,24,22.30
2015,09,11,12,25,22.30
2015,09,11,12,26,22.40
2015,09,11,12,27,22.60
2015,09,11,12,28,22.70
2015,09,11,12,29,22.80
2015,09,11,12,30,22.90
2015,09,11,12,31,22.90
2015,09,11,12,32,22.80
2015,09,11,12,33,22.80
2015,09,11,12,34,22.70
2015,09,11,12,35,22.70
2015,09,11,12,36,22.80
2015,09,11,12,37,22.90
2015,09,11,12,38,22.90
2015,09,11,12,39,22.90
2015,09,11,12,40,22.90
2015,09,11,12,41,22.90
2015,09,11,12,42,22.90
2015,09,11,12,43,22.90
2015,09,11,12,44,22.80
2015,09,11,12,45,22.80
2015,09,11,12,46,22.80
2015,09,11,12,47,22.80
2015,09,11,12,48,22.80
2015,09,11,12,49,22.70
2015,09,11,12,50,22.70
2015,09,11,12,51,22.70
2015,09,11,12,52,22.80
2015,09,11,12,53,22.80
2015,09,11,12,54,22.90
2015,09,11,12,55,22.90
2015,09,11,12,56,22.90
2015,09,11,12,57,22.90
2015,09,11,12,58,22.90
2015,09,11,12,59,22.90
2015,09,11,13,00,22.90
2015,09,11,13,01,23.00
2015,09,11,13,02,23.10
2015,09,11,13,03,23.10
2015,09,11,13,04,23.20
2015,09,11,13,05,23.30
2015,09,11,13,06,23.30
2015,09,11,13,07,23.40
2015,09,11,13,08,23.50
2015,09,11,13,09,23.60
2015,09,11,13,10,23.70
2015,09,11,13,11,23.70
2015,09,11,13,12,23.80
2015,09,11,13,13,23.70
2015,09,11,13,14,23.70
2015,09,11,13,15,23.70
2015,09,11,13,16,23.70
2015,09,11,13,17,23.70
2015,09,11,13,18,23.70
2015,09,11,13,19,23.60
2015,09,11,13,20,23.70
2015,09,11,13,21,23.70
2015,09,11,13,22,23.70
2015,09,11,13,23,23.80
2015,09,11,13,24,23.90
2015,09,11,13,25,24.10
2015,09,11,13,26,24.10
2015,09,11,13,27,24.10
2015,09,11,13,28,23.90
2015,09,11,13,29,23.90
2015,09,11,13,30,24.10
2015,09,11,13,31,24.10
2015,09,11,13,32,24.20
2015,09,11,13,33,24.20
2015,09,11,13,34,24.10
2015,09,11,13,35,24.10
2015,09,11,13,36,23.90
2015,09,11,13,37,23.70
2015,09,11,13,38,23.70
2015,09,11,13,39,23.70
2015,09,11,13,40,23.70
2015,09,11,13,41,23.70
2015,09,11,13,42,23.70
2015,09,11,13,43,23.70
2015,09,11,13,44,23.80
2015,09,11,13,45,23.90
2015,09,11,13,46,24.10
2015,09,11,13,47,24.20
2015,09,11,13,48,24.20
2015,09,11,13,49,24.20
2015,09,11,13,50,24.20
2015,09,11,13,51,24.30
2015,09,11,13,52,24.30
2015,09,11,13,53,24.20
2015,09,11,13,54,24.10
2015,09,11,13,55,24.00
2015,09,11,13,56,23.90
2015,09,11,13,57,23.80
2015,09,11,13,58,23.80
2015,09,11,13,59,23.70
2015,09,11,14,00,23.70
2015,09,11,14,01,23.70
2015,09,11,14,02,23.70
2015,09,11,14,03,23.70
2015,09,11,14,04,23.70
2015,09,11,14,05,23.70
2015,09,11,14,06,23.70
2015,09,11,14,07,23.70
2015,09,11,14,08,23.80
2015,09,11,14,09,23.80
2015,09,11,14,10,23.80
2015,09,11,14,11,23.80
2015,09,11,14,12,23.80
2015,09,11,14,13,23.80
2015,09,11,14,14,23.90
2015,09,11,14,15,24.00
2015,09,11,14,16,24.10
2015,09,11,14,17,24.10
2015,09,11,14,18,24.20
2015,09,11,14,19,24.20
2015,09,11,14,20,24.20
2015,09,11,14,21,24.30
2015,09,11,14,22,24.30
2015,09,11,14,23,24.40
2015,09,11,14,24,24.60
2015,09,11,14,25,24.80
2015,09,11,14,26,24.80
2015,09,11,14,27,24.80
2015,09,11,14,28,24.80
2015,09,11,14,29,24.60
2015,09,11,14,30,24.50
2015,09,11,14,31,24.40
2015,09,11,14,32,24.20
2015,09,11,14,33,24.10
2015,09,11,14,34,24.10
2015,09,11,14,35,24.10
2015,09,11,14,36,24.10
2015,09,11,14,37,24.20
2015,09,11,14,38,24.30
2015,09,11,14,39,24.50
2015,09,11,14,40,24.50
2015,09,11,14,41,24.60
2015,09,11,14,42,24.50
2015,09,11,14,43,24.40
2015,09,11,14,44,24.40
2015,09,11,14,45,24.30
2015,09,11,14,46,24.50
2015,09,11,14,47,24.50
2015,09,11,14,48,24.50
2015,09,11,14,49,24.60
2015,09,11,14,50,24.60
2015,09,11,14,51,24.60
2015,09,11,14,52,24.50
2015,09,11,14,53,24.50
2015,09,11,14,54,24.50
2015,09,11,14,55,24.40
2015,09,11,14,56,24.30
2015,09,11,14,57,24.20
2015,09,11,14,58,24.20
2015,09,11,14,59,24.10
2015,09,11,15,00,24.10
2015,09,11,15,01,24.10
2015,09,11,15,02,24.10
2015,09,11,15,03,24.10
2015,09,11,15,04,24.10
2015,09,11,15,05,24.30
2015,09,11,15,06,24.30
2015,09,11,15,07,24.30
2015,09,11,15,08,24.30
2015,09,11,15,09,24.30
2015,09,11,15,10,24.30
2015,09,11,15,11,24.20
2015,09,11,15,12,24.30
2015,09,11,15,13,24.30
2015,09,11,15,14,24.30
2015,09,11,15,15,24.30
2015,09,11,15,16,24.20
2015,09,11,15,17,24.20
2015,09,11,15,18,24.20
2015,09,11,15,19,24.20
2015,09,11,15,20,24.30
2015,09,11,15,21,24.30
2015,09,11,15,22,24.30
2015,09,11,15,23,24.20
2015,09,11,15,24,24.20
2015,09,11,15,25,24.20
2015,09,11,15,26,24.10
2015,09,11,15,27,24.10
2015,09,11,15,28,24.10
2015,09,11,15,29,24.10
2015,09,11,15,30,24.20
2015,09,11,15,31,24.30
2015,09,11,15,32,24.30
2015,09,11,15,33,24.40
2015,09,11,15,34,24.40
2015,09,11,15,35,24.30
2015,09,11,15,36,24.30
2015,09,11,15,37,24.30
2015,09,11,15,38,24.30
2015,09,11,15,39,24.30
2015,09,11,15,40,24.30
2015,09,11,15,41,24.40
2015,09,11,15,42,24.40
2015,09,11,15,43,24.50
2015,09,11,15,44,24.50
2015,09,11,15,45,24.60
2015,09,11,15,46,24.60
2015,09,11,15,47,24.70
2015,09,11,15,48,24.70
2015,09,11,15,49,24.70
2015,09,11,15,50,24.60
2015,09,11,15,51,24.60
2015,09,11,15,52,24.50
2015,09,11,15,53,24.50
2015,09,11,15,54,24.50
2015,09,11,15,55,24.50
2015,09,11,15,56,24.50
2015,09,11,15,57,24.60
2015,09,11,15,58,24.70
2015,09,11,15,59,24.70
2015,09,11,16,00,24.60
2015,09,11,16,01,24.60
2015,09,11,16,02,24.60
2015,09,11,16,03,24.60
2015,09,11,16,04,24.60
2015,09,11,16,05,24.50
2015,09,11,16,06,24.40
2015,09,11,16,07,24.50
2015,09,11,16,08,24.40
2015,09,11,16,09,24.40
2015,09,11,16,10,24.50
2015,09,11,16,11,24.50
2015,09,11,16,12,24.50
2015,09,11,16,13,24.60
2015,09,11,16,14,24.60
2015,09,11,16,15,24.70
2015,09,11,16,16,24.70
2015,09,11,16,17,24.70
2015,09,11,16,18,24.80
2015,09,11,16,19,24.90
2015,09,11,16,20,24.90
2015,09,11,16,21,24.90
2015,09,11,16,22,24.90
2015,09,11,16,23,25.00
2015,09,11,16,24,24.90
2015,09,11,16,25,24.80
2015,09,11,16,26,24.80
2015,09,11,16,27,24.70
2015,09,11,16,28,24.60
2015,09,11,16,29,24.60
2015,09,11,16,30,24.50
2015,09,11,16,31,24.50
2015,09,11,16,32,24.60
2015,09,11,16,33,24.70
2015,09,11,16,34,24.80
2015,09,11,16,35,24.90
2015,09,11,16,36,24.90
2015,09,11,16,37,24.90
2015,09,11,16,38,25.00
2015,09,11,16,39,25.00
2015,09,11,16,40,25.00
2015,09,11,16,41,25.00
2015,09,11,16,42,25.00
2015,09,11,16,43,25.00
2015,09,11,16,44,25.00
2015,09,11,16,45,25.00
2015,09,11,16,46,25.00
2015,09,11,16,47,25.00
2015,09,11,16,48,25.00
2015,09,11,16,49,25.00
2015,09,11,16,50,25.00
2015,09,11,16,51,25.00
